ARE1010 SKRG-SKCL

Flight info

Callsign ARE1010
Flight time 0h 37m
Altitude 34000
Route RNG2B RNG DCT ISVON DCT MATRO DCT PEI DCT ULQ ULQ2G
Aircraft A319/M-SDE3FGHIRWY/LB1

Departure

Time 2026-04-27 23:08
Airport Jose Maria Córdova International Airport (SKRG)

Arrival

Time 2026-04-27 23:45
Airport Alfonso Bonilla Aragon International Airport (SKCL)
Time Latitude Longitude Altitude Speed Heading
2026-04-27 22:50 6.17140 -75.42687 7021 ft 0 kts 269°
2026-04-27 22:58 6.17140 -75.42686 7018 ft 0 kts 269°
2026-04-27 22:59 6.17141 -75.42670 7021 ft 2 kts 269°
2026-04-27 22:59 6.17142 -75.42654 7018 ft 2 kts 261°
2026-04-27 23:00 6.17153 -75.42622 7019 ft 2 kts 207°
2026-04-27 23:00 6.17165 -75.42619 7023 ft 1 kts 177°
2026-04-27 23:00 6.17166 -75.42619 7023 ft 0 kts 176°
2026-04-27 23:03 6.17149 -75.42618 7020 ft 5 kts 179°
2026-04-27 23:03 6.17103 -75.42618 7018 ft 9 kts 174°
2026-04-27 23:03 6.17036 -75.42591 7020 ft 12 kts 149°
2026-04-27 23:03 6.16953 -75.42541 7018 ft 16 kts 149°
2026-04-27 23:04 6.16845 -75.42487 7013 ft 19 kts 172°
2026-04-27 23:04 6.16700 -75.42483 7010 ft 23 kts 179°
2026-04-27 23:04 6.16530 -75.42482 7004 ft 26 kts 179°
2026-04-27 23:04 6.16333 -75.42480 7003 ft 30 kts 179°
2026-04-27 23:05 6.16109 -75.42478 6999 ft 34 kts 180°
2026-04-27 23:05 6.15859 -75.42477 6991 ft 38 kts 180°
2026-04-27 23:05 6.15582 -75.42475 6990 ft 42 kts 180°
2026-04-27 23:05 6.15297 -75.42472 6985 ft 36 kts 180°
2026-04-27 23:06 6.15113 -75.42473 6982 ft 20 kts 180°
2026-04-27 23:06 6.14963 -75.42472 6979 ft 22 kts 179°
2026-04-27 23:06 6.14887 -75.42429 6977 ft 9 kts 92°
2026-04-27 23:06 6.14892 -75.42341 6977 ft 17 kts 68°
2026-04-27 23:07 6.15022 -75.42299 6981 ft 26 kts 359°
2026-04-27 23:07 6.15381 -75.42302 6986 ft 81 kts 359°
2026-04-27 23:07 6.16138 -75.42309 6995 ft 135 kts 359°
2026-04-27 23:07 6.17204 -75.42317 7159 ft 165 kts 359°
2026-04-27 23:08 6.18318 -75.42324 7986 ft 159 kts 359°
2026-04-27 23:08 6.19448 -75.42328 8390 ft 170 kts 359°
2026-04-27 23:08 6.20710 -75.42321 8597 ft 193 kts
2026-04-27 23:08 6.21985 -75.41758 8852 ft 214 kts 46°
2026-04-27 23:09 6.22570 -75.40390 9380 ft 221 kts 88°
2026-04-27 23:09 6.22113 -75.38929 10012 ft 223 kts 121°
2026-04-27 23:09 6.21546 -75.38040 10452 ft 223 kts 124°
2026-04-27 23:09 6.20378 -75.36330 11266 ft 226 kts 125°
2026-04-27 23:10 6.19770 -75.35454 11662 ft 227 kts 125°
2026-04-27 23:10 6.18863 -75.34143 12267 ft 229 kts 125°
2026-04-27 23:10 6.17951 -75.32816 12871 ft 232 kts 125°
2026-04-27 23:10 6.16822 -75.31652 13280 ft 242 kts 151°
2026-04-27 23:11 6.15135 -75.31319 13446 ft 265 kts 189°
2026-04-27 23:11 6.13417 -75.32110 13741 ft 287 kts 223°
2026-04-27 23:11 6.12241 -75.33804 14029 ft 309 kts 244°
2026-04-27 23:11 6.11024 -75.35679 14206 ft 334 kts 227°
2026-04-27 23:12 6.09137 -75.37169 14324 ft 358 kts 212°
2026-04-27 23:12 6.06863 -75.38314 14641 ft 371 kts 204°
2026-04-27 23:12 6.04445 -75.39275 15167 ft 376 kts 201°
2026-04-27 23:12 6.01985 -75.40205 15743 ft 380 kts 201°
2026-04-27 23:13 5.99509 -75.41194 16316 ft 383 kts 203°
2026-04-27 23:13 5.97041 -75.42144 16875 ft 387 kts 198°
2026-04-27 23:13 5.94474 -75.43009 17444 ft 391 kts 199°
2026-04-27 23:13 5.91899 -75.43914 18024 ft 394 kts 200°
2026-04-27 23:14 5.89295 -75.44845 18554 ft 398 kts 200°
2026-04-27 23:14 5.86676 -75.45780 19054 ft 401 kts 200°
2026-04-27 23:14 5.84047 -75.46748 19559 ft 404 kts 201°
2026-04-27 23:14 5.81433 -75.47815 20058 ft 407 kts 203°
2026-04-27 23:15 5.78827 -75.48953 20587 ft 410 kts 204°
2026-04-27 23:15 5.76213 -75.50130 21092 ft 413 kts 204°
2026-04-27 23:15 5.73579 -75.51319 21573 ft 417 kts 204°
2026-04-27 23:15 5.70924 -75.52506 22041 ft 420 kts 204°
2026-04-27 23:16 5.68238 -75.53691 22489 ft 423 kts 203°
2026-04-27 23:16 5.65532 -75.54873 22929 ft 426 kts 203°
2026-04-27 23:16 5.62807 -75.56054 23354 ft 429 kts 203°
2026-04-27 23:16 5.60060 -75.57239 23744 ft 431 kts 203°
2026-04-27 23:17 5.57292 -75.58431 24105 ft 434 kts 203°
2026-04-27 23:17 5.54513 -75.59632 24475 ft 436 kts 203°
2026-04-27 23:17 5.51726 -75.60841 24840 ft 438 kts 203°
2026-04-27 23:17 5.48919 -75.62059 25200 ft 440 kts 203°
2026-04-27 23:18 5.46106 -75.63283 25567 ft 442 kts 203°
2026-04-27 23:18 5.43321 -75.64495 25914 ft 443 kts 203°
2026-04-27 23:18 5.40482 -75.65729 26264 ft 445 kts 202°
2026-04-27 23:18 5.37629 -75.66965 26607 ft 447 kts 202°
2026-04-27 23:19 5.34764 -75.68200 26937 ft 449 kts 202°
2026-04-27 23:19 5.31886 -75.69439 27272 ft 451 kts 202°
2026-04-27 23:19 5.28989 -75.70685 27605 ft 454 kts 202°
2026-04-27 23:19 5.26080 -75.71937 27952 ft 456 kts 202°
2026-04-27 23:20 5.23164 -75.73194 28277 ft 458 kts 202°
2026-04-27 23:20 5.20230 -75.74461 28598 ft 460 kts 202°
2026-04-27 23:20 5.17286 -75.75735 28910 ft 462 kts 202°
2026-04-27 23:20 5.14329 -75.77016 29216 ft 464 kts 202°
2026-04-27 23:21 5.11361 -75.78302 29487 ft 466 kts 202°
2026-04-27 23:21 5.08390 -75.79589 29795 ft 468 kts 202°
2026-04-27 23:21 5.05389 -75.80889 30083 ft 469 kts 202°
2026-04-27 23:21 5.02386 -75.82189 30327 ft 471 kts 202°
2026-04-27 23:22 4.99369 -75.83493 30566 ft 473 kts 202°
2026-04-27 23:22 4.96348 -75.84796 30853 ft 473 kts 202°
2026-04-27 23:22 4.93332 -75.86094 31224 ft 471 kts 202°
2026-04-27 23:22 4.90329 -75.87386 31598 ft 469 kts 202°
2026-04-27 23:23 4.87333 -75.88677 31880 ft 468 kts 202°
2026-04-27 23:23 4.84338 -75.89968 32249 ft 467 kts 203°
2026-04-27 23:23 4.81360 -75.91253 32635 ft 466 kts 203°
2026-04-27 23:23 4.78387 -75.92535 33034 ft 464 kts 203°
2026-04-27 23:24 4.75421 -75.93813 33410 ft 463 kts 203°
2026-04-27 23:24 4.72467 -75.95086 33752 ft 462 kts 203°
2026-04-27 23:24 4.69515 -75.96360 33914 ft 461 kts 203°
2026-04-27 23:24 4.66582 -75.97624 33948 ft 457 kts 203°
2026-04-27 23:25 4.60795 -76.00119 33955 ft 455 kts 203°
2026-04-27 23:25 4.54975 -76.02625 33967 ft 455 kts 203°
2026-04-27 23:26 4.49155 -76.05126 33975 ft 455 kts 203°
2026-04-27 23:26 4.43335 -76.07636 33993 ft 455 kts 203°
2026-04-27 23:27 4.37515 -76.10145 33983 ft 455 kts 203°
2026-04-27 23:27 4.31692 -76.12654 33773 ft 456 kts 203°
2026-04-27 23:28 4.28774 -76.13910 33520 ft 457 kts 203°
2026-04-27 23:28 4.25846 -76.15173 33008 ft 458 kts 203°
2026-04-27 23:28 4.22915 -76.16437 32367 ft 459 kts 203°
2026-04-27 23:28 4.19981 -76.17702 31675 ft 460 kts 203°
2026-04-27 23:29 4.17037 -76.18969 30812 ft 462 kts 202°
2026-04-27 23:29 4.14112 -76.20224 29884 ft 465 kts 202°
2026-04-27 23:29 4.11119 -76.21476 28773 ft 468 kts 199°
2026-04-27 23:29 4.07943 -76.22363 27669 ft 469 kts 190°
2026-04-27 23:30 4.04720 -76.22753 26899 ft 464 kts 185°
2026-04-27 23:30 4.01570 -76.23050 26137 ft 459 kts 185°
2026-04-27 23:30 3.98363 -76.23364 25384 ft 454 kts 185°
2026-04-27 23:30 3.95232 -76.23674 24672 ft 450 kts 185°
2026-04-27 23:31 3.92211 -76.23973 23998 ft 446 kts 185°
2026-04-27 23:31 3.89175 -76.24273 23270 ft 442 kts 185°
2026-04-27 23:31 3.86141 -76.24570 22369 ft 435 kts 185°
2026-04-27 23:31 3.83150 -76.24860 21409 ft 429 kts 185°
2026-04-27 23:32 3.80197 -76.25147 20485 ft 423 kts 185°
2026-04-27 23:32 3.77288 -76.25427 19595 ft 417 kts 185°
2026-04-27 23:32 3.74416 -76.25702 18769 ft 413 kts 185°
2026-04-27 23:32 3.71564 -76.25978 18071 ft 410 kts 186°
2026-04-27 23:33 3.68742 -76.26252 17344 ft 405 kts 185°
2026-04-27 23:33 3.65954 -76.26530 16674 ft 400 kts 186°
2026-04-27 23:33 3.63198 -76.26846 15995 ft 396 kts 187°
2026-04-27 23:33 3.60483 -76.27189 15320 ft 391 kts 187°
2026-04-27 23:34 3.57797 -76.27543 14640 ft 387 kts 187°
2026-04-27 23:34 3.55144 -76.27895 13963 ft 383 kts 187°
2026-04-27 23:34 3.52530 -76.28235 13558 ft 371 kts 187°
2026-04-27 23:34 3.50034 -76.28552 13431 ft 352 kts 187°
2026-04-27 23:35 3.47723 -76.29016 13306 ft 335 kts 192°
2026-04-27 23:35 3.45492 -76.29511 13175 ft 321 kts 192°
2026-04-27 23:35 3.43354 -76.29982 13050 ft 309 kts 192°
2026-04-27 23:35 3.41292 -76.30434 12923 ft 298 kts 192°
2026-04-27 23:36 3.39300 -76.30873 12800 ft 288 kts 192°
2026-04-27 23:36 3.37370 -76.31299 12652 ft 279 kts 192°
2026-04-27 23:36 3.35513 -76.31709 12483 ft 267 kts 192°
2026-04-27 23:36 3.33747 -76.32100 12356 ft 253 kts 192°
2026-04-27 23:37 3.32071 -76.32470 12247 ft 242 kts 192°
2026-04-27 23:37 3.30447 -76.32829 12033 ft 239 kts 192°
2026-04-27 23:37 3.28809 -76.33189 11597 ft 243 kts 192°
2026-04-27 23:37 3.27151 -76.33572 11199 ft 245 kts 196°
2026-04-27 23:38 3.25762 -76.34471 10808 ft 238 kts 233°
2026-04-27 23:38 3.25205 -76.35975 10436 ft 232 kts 269°
2026-04-27 23:38 3.25463 -76.37559 10070 ft 232 kts 283°
2026-04-27 23:38 3.25815 -76.39134 9662 ft 232 kts 282°
2026-04-27 23:39 3.26183 -76.40719 9255 ft 234 kts 287°
2026-04-27 23:39 3.27053 -76.42038 8869 ft 233 kts 322°
2026-04-27 23:39 3.28545 -76.42588 8519 ft 231 kts 359°
2026-04-27 23:39 3.30131 -76.42389 8182 ft 230 kts 10°
2026-04-27 23:40 3.31679 -76.42104 7843 ft 224 kts 10°
2026-04-27 23:40 3.33192 -76.41835 7460 ft 219 kts 10°
2026-04-27 23:40 3.34694 -76.41574 6978 ft 220 kts
2026-04-27 23:40 3.36209 -76.41311 6447 ft 222 kts
2026-04-27 23:41 3.37694 -76.41053 6072 ft 209 kts
2026-04-27 23:41 3.39071 -76.40814 5792 ft 192 kts
2026-04-27 23:41 3.40321 -76.40598 5556 ft 169 kts
2026-04-27 23:41 3.41404 -76.40410 5350 ft 148 kts
2026-04-27 23:42 3.42385 -76.40240 5170 ft 140 kts
2026-04-27 23:42 3.43328 -76.40076 5000 ft 136 kts
2026-04-27 23:42 3.44255 -76.39916 4830 ft 134 kts
2026-04-27 23:42 3.45163 -76.39758 4680 ft 134 kts
2026-04-27 23:43 3.46082 -76.39599 4524 ft 134 kts 10°
2026-04-27 23:43 3.47005 -76.39438 4357 ft 134 kts 10°
2026-04-27 23:43 3.47927 -76.39278 4193 ft 135 kts 10°
2026-04-27 23:43 3.48853 -76.39118 4018 ft 135 kts 10°
2026-04-27 23:44 3.49779 -76.38957 3848 ft 135 kts 10°
2026-04-27 23:44 3.50703 -76.38797 3645 ft 134 kts 10°
2026-04-27 23:44 3.51622 -76.38639 3476 ft 134 kts 10°
2026-04-27 23:44 3.52538 -76.38481 3299 ft 133 kts
2026-04-27 23:45 3.53436 -76.38324 3164 ft 122 kts
2026-04-27 23:45 3.54151 -76.38201 3168 ft 85 kts 10°
2026-04-27 23:45 3.54578 -76.38123 3168 ft 43 kts 10°
2026-04-27 23:45 3.54863 -76.38075 3164 ft 43 kts
2026-04-27 23:46 3.55063 -76.38047 3167 ft 15 kts 345°
2026-04-27 23:46 3.55105 -76.38124 3168 ft 6 kts 280°
2026-04-27 23:46 3.55112 -76.38173 3169 ft 8 kts 273°
2026-04-27 23:46 3.55069 -76.38203 3168 ft 10 kts 188°
2026-04-27 23:47 3.54992 -76.38216 3169 ft 13 kts 191°
2026-04-27 23:47 3.54896 -76.38232 3167 ft 16 kts 189°
2026-04-27 23:47 3.54781 -76.38252 3167 ft 18 kts 189°
2026-04-27 23:47 3.54648 -76.38275 3167 ft 21 kts 189°
2026-04-27 23:48 3.54497 -76.38301 3166 ft 23 kts 190°
2026-04-27 23:48 3.54329 -76.38330 3165 ft 26 kts 190°
2026-04-27 23:48 3.54146 -76.38361 3164 ft 25 kts 190°
2026-04-27 23:48 3.54027 -76.38430 3164 ft 21 kts 220°
2026-04-27 23:49 3.53909 -76.38527 3163 ft 23 kts 220°
2026-04-27 23:49 3.53818 -76.38603 3162 ft 14 kts 220°
2026-04-27 23:49 3.53758 -76.38681 3163 ft 11 kts 239°
2026-04-27 23:49 3.53723 -76.38683 3162 ft 4 kts 128°
2026-04-27 23:50 3.53713 -76.38667 3162 ft 2 kts 127°
2026-04-27 23:50 3.53712 -76.38667 3162 ft 0 kts 129°